[Date Prev][Date Next][Thread Prev][Thread Next] - [Date Index][Thread Index][Author Index]

2 Line ISS Keps 11-15



ISS
1 25544U 98067A   02319.17961816  .00035498  00000-0  45104-3 0  3815
2 25544  51.6399  14.8618 0013830 138.0970 272.9088 15.58937952227524


----
Via the sarex mailing list at AMSAT.ORG courtesy of AMSAT-NA.
To unsubscribe, send "unsubscribe sarex" to Majordomo@amsat.org



AMSAT Top AMSAT Home